Current weather by "City, St" or "zip code"  
 
Advertise Here

Current Conditions: Kenosha, Kenosha Regional Airport, WI

A Few Clouds


28.0 F

Last Updated on Jan 27 2021, 1:53 pm CST
Humidity: 58%
Wind Speed: N 9.2 mph
Barometer 30.35 in
Dewpoint: 15.1 F
Visibility: 10.00 mi
Precip: --
Heat Index: NA
Wind Chill: 19 F
Current conditions at:

Kenosha, Kenosha Regional Airport, WI (KENW)

Lat: 42.595 Lon: 87.93806

Local Radar Image active severe weather and emergency alerts image image weather storm and storm spotter reports image weather observation monitoring service image
Local
Radar
Active
Alerts
Storm Reports Obs
Monitoring

Sign-up For Email & Text Message Weather Alert Notification Services


Advertise Here

Observation History for Kenosha, Kenosha Regional Airport, WI


Time Wind
(mph)
Vis
(mi)
Weather Precip (in) Temperature (F) Relative
Humidity
Wind
Chill
(F)
Heat
Index
(F)
Pressure
Air Dwpt altimeter
(in)
sea level
(mb)
Rmks
1:53 pm CST N 9.2 10.00 A Few Clouds -- 28.0 15.1 58% 19 NA 30.35 1028.8
12:53 pm CST N 10.4 10.00 Overcast -- 27.0 16.0 63% 17 NA 30.35 1028.8
11:53 am CST N 8.1 10.00 Overcast -- 24.0 14.0 65% 15 NA 30.36 1029.3
10:53 am CST NW 8.1 10.00 Mostly Cloudy -- 22.0 12.0 66% 13 NA 30.37 1029.7
9:53 am CST NW 8.1 10.00 Fair -- 19.0 10.0 68% 9 NA 30.36 1029.2
8:53 am CST NW 9.2 10.00 A Few Clouds -- 17.0 9.0 70% 6 NA 30.34 1028.8
7:53 am CST NW 10.4 10.00 Overcast -- 17.0 8.1 68% 5 NA 30.35 1028.9
6:53 am CST N 5.8 10.00 Overcast -- 18.0 10.0 71% 10 NA 30.32 1028.0
5:53 am CST NW 5.8 10.00 Mostly Cloudy -- 19.0 10.0 68% 11 NA 30.28 1026.6
4:53 am CST N 9.2 10.00 Overcast -- 19.0 10.0 68% 8 NA 30.28 1026.4
3:53 am CST N 10.4 10.00 Overcast -- 20.0 10.9 68% 9 NA 30.29 1026.8
2:53 am CST NW 9.2 10.00 Overcast -- 20.0 10.9 68% 9 NA 30.30 1027.2
1:53 am CST NW 10.4 10.00 Overcast -- 21.0 10.9 65% 10 NA 30.28 1026.5
12:53 am CST NW 9.2 10.00 Overcast -- 21.0 12.0 68% 11 NA 30.25 1025.6
11:53 pm CST NW 10.4 10.00 Overcast -- 22.0 12.0 66% 11 NA 30.23 1024.6
10:53 pm CST NW 10.4 10.00 Overcast -- 23.0 12.9 65% 12 NA 30.20 1023.9
9:53 pm CST N 11.5 10.00 Overcast -- 25.0 12.9 60% 14 NA 30.18 1022.9
8:53 pm CST N 10.4 G 19.6 10.00 Overcast -- 25.0 15.1 66% 15 NA 30.18 1022.9
7:53 pm CST NW 13.8 G 21.9 10.00 Overcast -- 26.0 17.1 69% 14 NA 30.16 1022.4
6:53 pm CST N 13.8 G 21.9 10.00 Overcast -- 26.0 17.1 69% 14 NA 30.13 1021.4
5:53 pm CST N 11.5 G 19.6 10.00 Overcast -- 27.0 18.0 69% 17 NA 30.10 1020.2
4:53 pm CST N 13.8 G 24.2 10.00 Overcast -- 28.0 19.9 72% 17 NA 30.07 1019.1
3:53 pm CST N 16.1 G 25.3 10.00 Overcast Trace 29.0 21.9 75% 17 NA 30.02 1017.4
2:53 pm CST N 11.5 G 19.6 2.00 Light Snow 00.01 30.0 25.0 82% 20 NA 29.98 1016.1

Regional Weather Observation


Burlington Municipal Airport, WI (KBUU)

Fair
22.0 F

Milwaukee, General Mitchell International Airport, WI (KMKE)

Mostly Cloudy
25.0 F

Racine, Batten International Airport, WI (KRAC)

Fair
24.0 F

Kenosha, Kenosha Regional Airport, WI (KENW)

A Few Clouds
28.0 F

Waukesha County Airport, WI (KUES)

Fair
21.0 F

Chicago/Waukegan Regional Airport, IL (KUGN)

Fair
28.0 F